Regional Weather Roundup
Issued by NWS Jackson, KY

Home | Current Version | Previous Version | Graphics & Text | Print | Product List | Glossary On
Versions: 1 2 3 4 5 6 7 8 9 10 11 12 13 14 15 16 17 18 19 20 21 22 23 24 25 26 27 28 29 30 31 32 33 34 35 36 37 38 39 40 41 42 43 44 45 46 47 48 49 50
000
ASUS43 KJKL 221510
RWRJKL

EAST KENTUCKY HOURLY WEATHER ROUNDUP
NATIONAL WEATHER SERVICE JACKSON KY
1100 AM EDT SAT JUL 22 2017

NOTE: "FAIR" INDICATES FEW OR NO CLOUDS BELOW 12,000 FEET WITH
NO SIGNIFICANT WEATHER AND/OR OBSTRUCTIONS TO VISIBILITY.

* THESE REPORTS ARE NOT UNDER NWS QUALITY CONTROL AND MAY NOT
  REPORT WEATHER SUCH AS PRECIPITATION AND FOG.

KYZ079-080-083-085-087-088-110-112-115-119-120-221600
...EASTERN KENTUCKY...

CITY           SKY/WX    TMP DP  RH WIND       PRES   REMARKS
JACKSON        SUNNY     86  74  67 VRB5      30.03R HX  94
LONDON         SUNNY     88  73  61 W8        30.02S HX  95
SOMERSET*      CLOUDY    84  72  65 W8        30.02S
MONTICELLO*    SUNNY     89  78  70 NW9       30.03R HX 103
WILLIAMSBURG*  MOSUNNY   86  75  70 SW5       30.03S HX  95
MIDDLESBORO*   PTSUNNY   87  75  67 S6        30.03S HX  95
HARLAN APT*    SUNNY     84  70  61 CALM      30.05S
PIKE CO APT*   PTSUNNY   84  74  73 CALM      30.03S HX  91
BIG SANDY APT* CLOUDY    85  74  71 SW6       30.01S HX  92
MOREHEAD APT*  CLOUDY    86  75  70 SW7G14    30.00R HX  95
ASHLAND*         N/A    N/A N/A N/A MISG        N/A
$$

KYZ035-036-041-042-044-050-067-078-099-221600
...CENTRAL KENTUCKY...

CITY           SKY/WX    TMP DP  RH WIND       PRES   REMARKS
MT STERLING*   PTSUNNY   86  77  74 W9        30.00S HX  97
FLEMING/MASON* MOSUNNY   87  77  72 W13       29.96F HX  98
DANVILLE*      CLOUDY    86  73  66 W8        30.01S HX  93
LEXINGTON      CLOUDY    87  74  64 SW14      29.98F HAZE    HX  95
FRANKFORT      CLOUDY    88  74  63 SW12      29.96R HX  96
LOUISVILLE     PTSUNNY   90  75  61 W12       29.94S HX 100
LEBANON*         N/A     86  75  70 SW7       29.99S HX  95
GLASGOW*       SUNNY     90  74  59 W8        29.99S HX  98
BOWLING GREEN  SUNNY     91  76  61 SW8       29.99R HX 103
$$

KYZ091>093-OHZ055-061-077-WVZ005-015-034-035-042-221600
...SOUTHERN OHIO/WEST VIRGINIA...

CITY           SKY/WX    TMP DP  RH WIND       PRES   REMARKS
COVINGTON      CLOUDY    85  78  80 W12G18    29.93R HX  96
COLUMBUS       TSTM      74  73  97 SW10      29.91R FOG
DAYTON         CLOUDY    76  72  87 SW8       29.92R
WILMINGTON     PTSUNNY   79  76  90 S10       29.91F
HUNTINGTON     PTSUNNY   85  76  74 SW6       29.95F HX  94
CHARLESTON     CLOUDY    84  73  69 SW8       29.96F HX  90
PINEVILLE*     SUNNY     84  72  66 MISG      30.09S
BECKLEY        PTSUNNY   81  69  67 SW8G18    30.08F
BLUEFIELD      PTSUNNY   80  68  66 W10       30.11F
LOGAN CO APT*    N/A     84  75  74 CALM      30.02F HX  92
$$

VAZ002-007-008-TNZ017-027-036-066-071-221600
...SOUTHWEST VIRGINIA/EAST TENNESSEE...

CITY           SKY/WX    TMP DP  RH WIND       PRES   REMARKS
WISE*          MOSUNNY   82  66  57 SW8       30.13S
JONESVILLE*      N/A     86  73  66 S3        30.06F HX  93
ABINGDON*      SUNNY     86  72  63 W9        30.09S HX  91
BRISTOL        SUNNY     86  72  62 VRB5      30.06F HX  92
MORRISTOWN*    SUNNY     88  72  58 W8        30.04F HX  94
SEVIERVILLE*   SUNNY     90  72  55 VRB5      30.02F HX  96
KNOXVILLE      MOSUNNY   87  71  58 SW10      30.02F HX  93
LAFOLLETTE*    SUNNY     86  75  70 S5        30.07S HX  95
OAK RIDGE      SUNNY     88  72  58 W6        30.04F HX  94
CROSSVILLE     SUNNY     84  70  62 W7        30.10S
NASHVILLE      SUNNY     92  75  57 W6        30.00S HX 103
$$

...KEY TO REMARKS...
VSB - VISIBILITY IN MILES
WCI - WIND CHILL INDEX
HX  - HEAT INDEX

$$



USA.gov is the U.S. government's official web portal to all federal, state and local government web resources and services.